Regional Weather Roundup
Issued by NWS Boston, MA

Home | Current Version | Previous Version | Text Only | Print | Product List | Glossary On
Versions: 1 2 3 4 5 6 7 8 9 10 11 12 13 14 15 16 17 18 19 20 21 22 23 24 25 26 27 28 29 30 31 32 33 34 35 36 37
000
ASUS41 KBOX 231310
RWRBOX

REGIONAL WEATHER ROUNDUP
NATIONAL WEATHER SERVICE TAUNTON MA
900 AM EDT THU OCT 23 2014

NOTE:  "FAIR" INDICATES FEW OR NO CLOUDS BELOW 12,000 FEET WITH NO
SIGNIFICANT WEATHER AND/OR OBSTRUCTIONS TO VISIBILITY.  THE FOLLOWING
OBSERVATION LOCATIONS DO NOT REPORT PRESENT WEATHER...PROVINCETOWN...
SMITHFIELD...BLOCK ISLAND...KEENE...AND OXFORD.

MAZALL-231400-
EASTERN MASSACHUSETTS

CITY           SKY/WX    TMP DP  RH WIND       PRES   REMARKS
BOSTON         RAIN      50  48  93 N23G37    29.65F FOG
BEVERLY        HVY RAIN  50  47  89 N13G23    29.69F FOG
LAWRENCE       HVY RAIN  50  48  93 N6        29.73F FOG
BEDFORD        LGT RAIN  49  48  97 N15       29.67F
BLUE HILL        N/A     49  48  97 N22G39    29.60F
NORWOOD        LGT RAIN  51  48  89 N18G26    29.62F
MARSHFIELD     NOT AVBL
PLYMOUTH       CLOUDY    56  54  93 N15G28    29.56F
TAUNTON        CLOUDY    55  51  86 N10G25    29.59R
NEW BEDFORD    CLOUDY    55  52  89 N9G18     29.56S
$$

MAZALL-231400-
CAPE COD AND THE ISLANDS

CITY           SKY/WX    TMP DP  RH WIND       PRES   REMARKS
FALMOUTH       CLOUDY    57  55  94 N14G23    29.55S
HYANNIS        MOSUNNY   59  56  89 N12       29.54R
CHATHAM        MOSUNNY   58  56  93 VRB6      29.54S
PROVINCETOWN   PTSUNNY   57   3  11 N15G22    29.56R
NANTUCKET      PTSUNNY   57  55  93 N14       29.52F
MARTHAS VNYRD  PTSUNNY   58  55  90 N16G23    29.54S
$$

MAZALL-231400-
CENTRAL AND WESTERN MASSACHUSETTS

CITY           SKY/WX    TMP DP  RH WIND       PRES   REMARKS
WORCESTER      LGT RAIN  47  45  93 N25G39    29.64F
FITCHBURG      RAIN      49  46  90 NW9       29.74F FOG
ORANGE         HVY RAIN  48  47  96 N9        29.75F FOG
SPRINGFIELD    RAIN      49  47  93 N18       29.69F FOG
WESTFIELD      RAIN      49  46  90 N18G30    29.70F
NORTH ADAMS    LGT RAIN  43  41  93 W8        29.81F FOG
PITTSFIELD     LGT RAIN  45  43  93 N6        29.76S
$$

RIZALL-231400-
RHODE ISLAND

CITY           SKY/WX    TMP DP  RH WIND       PRES   REMARKS
PROVIDENCE     CLOUDY    54  49  83 N23G30    29.61S
NEWPORT        CLOUDY    56  50  80 N18G29    29.58R
BLOCK ISLAND   CLOUDY    55  48  76 N20G30    29.57R
SMITHFIELD     CLOUDY    50  41  71 N21G29    29.61F
WESTERLY       CLOUDY    55  48  77 N15G26    29.59R
$$

CTZALL-231400-
CONNECTICUT

CITY           SKY/WX    TMP DP  RH WIND       PRES   REMARKS
BRADLEY INTL   RAIN      50  46  86 N23G35    29.66F
HARTFORD       CLOUDY    51  46  83 N13G26    29.66F
BRIDGEPORT     LGT RAIN  54  47  77 N25G33    29.63F
DANBURY        CLOUDY    48  43  82 NW10      29.71F
GROTON         PTSUNNY   54  49  83 N17       29.58R
NEW HAVEN      LGT RAIN  53  47  79 N22G39    29.61F
CHESTER        NOT AVBL
MERIDEN        CLOUDY    52  46  80 N14G26    29.65F
WILLIMANTIC    LGT RAIN  52  46  80 N17G28    29.63R
OXFORD         CLOUDY    50  43  76 N20G35    29.67F
$$

MEZ002-015-021-024-NHZ003-005-008-011-012-014-VTZ005-008-231400-
NORTHERN NEW ENGLAND

CITY           SKY/WX    TMP DP  RH WIND       PRES   REMARKS
PORTLAND ME    RAIN      51  47  86 NE23G35   29.77S FOG
BANGOR ME      LGT RAIN  48  47  96 N16       29.94F FOG
CONCORD NH     RAIN      48  47  96 N17G23    29.74F FOG
MANCHESTER NH  HVY RAIN  50  46  86 N16       29.72F FOG
NASHUA NH      HVY RAIN  48  48 100 NW9       29.74F VSB 1
PORTSMOUTH NH  TSTM      50  46  87 N15G23    29.69R VSB 1
JAFFREY NH     HVY RAIN  46  45  96 VRB7      29.76F FOG
KEENE NH       CLOUDY    48  39  71 N7        29.78S
BURLINGTON VT  CLOUDY    45  37  73 N17G23    29.98F
MT. WASHINGTON LGT RAIN  32  32 100 E63G70      N/A  VSB 1/16WCI  13
$$

NYZ052-076-231400-
EASTERN NEW YORK

CITY           SKY/WX    TMP DP  RH WIND       PRES   REMARKS
ALBANY         LGT RAIN  46  43  89 N9        29.86F
NEW YORK CITY  LGT RAIN  51  47  86 N16G30    29.70R
$$

ANZALL-231400-
MARINE OBSERVATIONS

STATION/POSITION TIME  TEMP    WIND        PRES    VSBY  WAVE
                       AIR SEA DIR/SP/G                  HT/PER
                 (UTC) (F)     (DEG/KT/KT) (MB)    (MI)  (FT/S)
BOSTON BUOY      NOT AVBL
BUZZARDS BAY     NOT AVBL
NANTUCKET SOUND  NOT AVBL
MASS BAY-STELLWA NOT AVBL
ISLE OF SHOALS   NOT AVBL
S OF BLOCK IS    NOT AVBL
$$

......................KEY.........................
  SKY/WX - SKY CONDITION/PRESENT WEATHER
  TMP    - TEMPERATURE IN FAHRENHEIT
  DWPT   - DEWPOINT IN FAHRENHEIT
  RH     - RELATIVE HUMIDITY IN PERCENT
  WIND   - DIRECTION AND SPEED IN MPH
  PRES   - MEAN SEA LEVEL PRESSURE IN INCHES OF HG
  WCI    - WIND CHILL INDEX
  VSB    - VISIBILITY IN MILES
  HX     - HEAT INDEX
  TC     - TEMPERATURE IN CELSIUS
  VRB    - VARIABLE WIND DIRECTION
  N/A    - NOT AVAILABLE



USA.gov is the U.S. government's official web portal to all federal, state and local government web resources and services.